This demonstration page uses our WeatherBlox Daily Observations layout. Learn more.

Left ArrowRight Arrow

39.51506, -84.39828

Hourly Observations for September 13, 2021

Temp ( °F °C ) Dew Point ( °F °C ) Humidity (%) Winds ( mph kmh ) Pressure ( in mb ) Visibility ( mi km ) Precip ( " mm )
12:15 am 00:15 Clear 69 20.5 68 20.2 98 98 SW 3 6 30.14 1021 10 16 N/A
12:35 am 00:35 Clear 68 19.8 67 19.7 99 99 SW 5 7 30.15 1021 10 16 N/A
12:55 am 00:55 Clear 66 19 N/A N/A SW 5 7 30.15 1021 10 16 N/A
1:15 am 01:15 Clear 68 20 N/A N/A N N/A 30.15 1021 10 16 N/A
1:35 am 01:35 Clear 66 19 N/A N/A N N/A 30.16 1021 10 16 N/A
1:55 am 01:55 Hazy 66 19 N/A N/A N N/A 30.17 1022 7 11 N/A
2:15 am 02:15 Clear 64 18 N/A N/A N N/A 30.16 1021 10 16 N/A
2:35 am 02:35 Clear 64 18 N/A N/A N N/A 30.17 1022 10 16 N/A
2:55 am 02:55 Mostly Cloudy with Mist and Fog 64 18 N/A N/A N N/A 30.16 1021 1 1 N/A
3:15 am 03:15 Mostly Cloudy with Fog 64 18 N/A N/A N N/A 30.16 1021 1 1 N/A
3:35 am 03:35 Mostly Cloudy with Mist and Fog 64 18 N/A N/A N N/A 30.16 1021 1 1 N/A
3:55 am 03:55 Mostly Cloudy with Fog 64 18 N/A N/A N N/A 30.16 1021 1 1 N/A
4:15 am 04:15 Hazy 64 18 N/A N/A N N/A 30.16 1021 7 11 N/A
4:35 am 04:35 Mostly Cloudy with Fog 63 17 N/A N/A SW 6 9 30.16 1021 1 1 N/A
4:55 am 04:55 Hazy 64 18 N/A N/A SW 7 11 30.15 1021 7 11 N/A
5:15 am 05:15 Clear 66 19 N/A N/A SW 7 11 30.16 1021 7 11 N/A
5:35 am 05:35 Clear 66 19 N/A N/A WSW 7 11 30.16 1021 7 11 N/A
5:55 am 05:55 Clear 66 19 N/A N/A SW 7 11 30.16 1021 7 11 N/A
6:15 am 06:15 Clear 66 19 N/A N/A WSW 5 7 30.16 1021 7 11 N/A
6:35 am 06:35 Clear 66 19 N/A N/A WSW 5 7 30.17 1022 7 11 N/A
6:55 am 06:55 Clear 66 19 N/A N/A SW 7 11 30.17 1022 7 11 N/A
7:15 am 07:15 Clear 66 19 N/A N/A SW 7 11 30.17 1022 7 11 N/A
7:35 am 07:35 Hazy 66 19 N/A N/A SW 6 9 30.18 1022 7 11 N/A
7:55 am 07:55 Sunny 66 19 N/A N/A SW 6 9 30.19 1022 7 11 N/A
8:15 am 08:15 Sunny 68 20 N/A N/A SSW 6 9 30.18 1022 7 11 N/A
8:35 am 08:35 Sunny 68 20 N/A N/A SW 5 7 30.18 1022 10 16 N/A
8:55 am 08:55 Sunny 70 21 70 20.9 99 99 SW 7 11 30.18 1022 10 16 N/A
9:15 am 09:15 Sunny 71 21.7 70 20.9 95 95 SW 9 15 30.17 1022 10 16 N/A
9:35 am 09:35 Sunny 72 22.1 69 20.8 92 92 SSW 10 17 30.17 1022 10 16 N/A
9:55 am 09:55 Sunny 73 22.8 69 20.7 88 88 SW 8 13 30.17 1022 10 16 N/A
10:15 am 10:15 Sunny 75 23.7 69 20.4 82 82 WSW 9 15 30.18 1022 10 16 N/A
10:35 am 10:35 Sunny 76 24.3 68 20.2 78 78 WSW 9 15 30.16 1021 10 16 N/A
10:55 am 10:55 Sunny 77 25 69 20.4 76 76 SW 10 17 30.16 1021 10 16 N/A
11:15 am 11:15 Sunny 78 25.4 69 20.3 73 73 SW 12 19 30.15 1021 10 16 N/A
11:35 am 11:35 Sunny 79 25.9 68 20.1 70 70 WSW 10 17 30.14 1021 10 16 N/A
11:55 am 11:55 Sunny 80 26.5 69 20.3 69 69 SW 13 20 30.14 1021 10 16 N/A
12:15 pm 12:15 Sunny 81 27.2 69 20.4 66 66 WSW 10 17 30.13 1020 10 16 N/A
12:35 pm 12:35 Sunny 81 27.4 68 19.9 64 64 SW 8 13 30.13 1020 10 16 N/A
12:55 pm 12:55 Sunny 82 27.9 68 20 62 62 SW 10 17 30.12 1020 10 16 N/A
1:15 pm 13:15 Sunny 83 28.3 68 20.2 62 62 SW 9 15 30.11 1019 10 16 N/A
1:35 pm 13:35 Sunny 83 28.6 67 19.3 57 57 SW 10 17 30.10 1019 10 16 N/A
1:55 pm 13:55 Sunny 85 29.2 67 19.5 56 56 SW 13 20 30.09 1019 10 16 N/A
2:15 pm 14:15 Sunny 85 29.2 67 19.5 56 56 S 9 15 30.08 1019 10 16 N/A
2:35 pm 14:35 Sunny 85 29.6 65 18.5 51 51 SSW 12 19 30.07 1018 10 16 N/A
2:55 pm 14:55 Sunny 86 29.8 66 18.8 52 52 SW 12 19 30.07 1018 10 16 N/A
3:15 pm 15:15 Sunny 86 30 65 18.1 49 49 SW 14 22 30.06 1018 10 16 N/A
3:35 pm 15:35 Sunny 86 30.1 64 18 48 48 SW 15 24 30.06 1018 10 16 N/A
3:55 pm 15:55 Sunny 86 29.9 65 18.1 49 49 SW 16 26 30.06 1018 10 16 N/A
4:15 pm 16:15 Sunny 86 30.1 65 18.4 50 50 SW 15 24 30.05 1018 10 16 N/A
4:35 pm 16:35 Sunny 86 29.9 65 18.2 49 49 SSW 16 26 30.05 1018 10 16 N/A
4:55 pm 16:55 Sunny 86 30.1 65 18.4 50 50 SSW 16 26 30.05 1018 10 16 N/A
5:15 pm 17:15 Sunny 85 29.2 65 18.4 52 52 SW 14 22 30.04 1017 10 16 N/A
5:35 pm 17:35 Partly Cloudy 85 29.2 66 19 54 54 SW 14 22 30.04 1017 10 16 N/A
5:55 pm 17:55 Partly Cloudy 84 29 66 19.1 55 55 SW 12 19 30.04 1017 10 16 N/A
6:15 pm 18:15 Partly Cloudy 84 28.8 66 18.8 55 55 SW 10 17 30.03 1017 10 16 N/A
6:35 pm 18:35 Partly Cloudy 83 28.4 66 18.8 56 56 SSW 10 17 30.04 1017 10 16 N/A
6:55 pm 18:55 Sunny 82 28 66 18.9 58 58 SW 12 19 30.03 1017 10 16 N/A
7:15 pm 19:15 Sunny 81 27.3 66 18.9 60 60 SW 7 11 30.03 1017 10 16 N/A
7:35 pm 19:35 Sunny 79 26.2 66 19.1 65 65 SW 8 13 30.03 1017 10 16 N/A
7:55 pm 19:55 Clear 78 25.3 66 19 68 68 SW 7 11 30.02 1017 10 16 N/A
8:15 pm 20:15 Clear 76 24.4 66 19.1 72 72 SW 6 9 30.02 1017 10 16 N/A
8:35 pm 20:35 Clear 73 22.5 68 19.9 85 85 W 5 7 30.04 1017 10 16 N/A
8:55 pm 20:55 Clear 72 22.3 68 20 87 87 W 3 6 30.04 1017 10 16 N/A
9:15 pm 21:15 Clear 71 21.7 68 20.2 91 91 N N/A 30.05 1018 7 11 N/A
9:35 pm 21:35 Clear 69 20.6 69 20.4 99 99 N N/A 30.05 1018 10 16 N/A
9:55 pm 21:55 Clear 70 21 69 20.4 96 96 N N/A 30.05 1018 10 16 N/A
10:15 pm 22:15 Clear 69 20.7 69 20.6 99 99 N N/A 30.05 1018 10 16 N/A
10:35 pm 22:35 Clear 68 20 N/A N/A N N/A 30.06 1018 10 16 N/A
10:55 pm 22:55 Clear 68 20 N/A N/A N N/A 30.06 1018 10 16 N/A
11:15 pm 23:15 Clear 68 20 68 20 100 100 N N/A 30.06 1018 10 16 N/A
11:35 pm 23:35 Clear 68 20 N/A N/A N N/A 30.06 1018 10 16 N/A
11:55 pm 23:55 Clear 68 20 N/A N/A N N/A 30.06 1018 10 16 N/A

Powered by AerisWeather